Juneau, WI

3:41 AM CST on December 11, 2019 (GMT -0600)
Dodge County

Weather History for KUNU - November, 2019

Change the Weather History Date:

Tuesday, November 12, 2019

  Actual Average Record
Temperature  
Mean Temperature 9 °F -  
Max Temperature 15 °F 45 °F 60 °F (1971)
Min Temperature 3 °F 31 °F -2 °F (1986)
Degree Days  
Heating Degree Days 56    
Moisture  
Dew Point -1 °F    
Average Humidity 64    
Maximum Humidity 78    
Minimum Humidity 46    
Precipitation  
Precipitation 0.00 in - - ()
Sea Level Pressure  
Sea Level Pressure 30.41 in    
Wind  
Wind Speed 7 mph ()    
Max Wind Speed 15 mph    
Max Gust Speed 21 mph    
Visibility 10.0 miles    
Events      
Averages and records for this station are not official NWS values.
T = Trace of Precipitation, MM = Missing Value Source: Averaged Metar Reports

Daily Weather History Graph

Daily Weather History Graph

Search for Another Location

Airport or City:

Astronomy

Nov. 12, 2019 Rise Set
Actual Time 6:44 AM CST 4:33 PM CST
Civil Twilight 6:13 AM CST 5:03 PM CST
Nautical Twilight 5:39 AM CST 5:38 PM CST
Astronomical Twilight 5:05 AM CST 6:11 PM CST
Moon 5:00 PM CST (11/12) 6:34 AM CST (11/12)
Length of Visible Light 10h 50m
Length of Day
9h 49m
Full, 100% of the Moon is Illuminated
Nov 12
Full
Nov 19
Last Quarter
Nov 26
New
Dec 4
First Quarter
Dec 11
Full

Hourly Weather History & Observations

Time (CST) Temp. Windchill Dew Point Humidity Pressure Visibility Wind Dir Wind Speed Gust Speed Precip Events Conditions
12:15 AM 8.4 °F -5.7 °F -0.6 °F 67% 30.42 in 10.0 mi NW 10.4 mph 16.1 mph N/A   Clear
12:35 AM 8.4 °F -5.7 °F -0.9 °F 66% 30.42 in 10.0 mi NW 10.4 mph 16.1 mph N/A   Clear
12:55 AM 8.2 °F -8.2 °F -1.3 °F 65% 30.42 in 10.0 mi WNW 13.8 mph 20.7 mph N/A   Clear
1:15 AM 8.2 °F -8.8 °F -1.3 °F 65% 30.42 in 10.0 mi NW 15.0 mph 19.6 mph N/A   Clear
1:55 AM 7.5 °F -6.0 °F -1.5 °F 67% 30.43 in 10.0 mi WNW 9.2 mph - N/A   Clear
2:15 AM 7.3 °F -4.1 °F -1.5 °F 67% 30.44 in 10.0 mi WNW 6.9 mph 17.3 mph N/A   Clear
2:35 AM 7.0 °F -9.8 °F -2.0 °F 67% 30.43 in 10.0 mi NW 13.8 mph 18.4 mph N/A   Clear
3:35 AM 6.4 °F -7.3 °F -1.7 °F 69% 30.44 in 10.0 mi NW 9.2 mph - N/A   Clear
3:55 AM 6.3 °F -7.5 °F -1.8 °F 69% 30.44 in 10.0 mi NW 9.2 mph - N/A   Clear
4:15 AM 5.9 °F -5.8 °F -1.7 °F 71% 30.44 in 10.0 mi WNW 6.9 mph - N/A   Clear
4:35 AM 5.5 °F -7.4 °F -1.7 °F 72% 30.45 in 10.0 mi WNW 8.1 mph - N/A   Clear
4:55 AM 5.2 °F -6.7 °F -1.8 °F 73% 30.45 in 10.0 mi WNW 6.9 mph - N/A   Clear
5:15 AM 5.4 °F -8.6 °F -1.8 °F 72% 30.45 in 10.0 mi NW 9.2 mph - N/A   Clear
5:35 AM 5.4 °F -9.6 °F -1.7 °F 73% 30.45 in 10.0 mi NW 10.4 mph 16.1 mph N/A   Clear
5:55 AM 5.0 °F -6.9 °F -1.8 °F 73% 30.45 in 10.0 mi WNW 6.9 mph - N/A   Clear
6:15 AM 4.3 °F -7.8 °F -1.7 °F 76% 30.46 in 10.0 mi WNW 6.9 mph - N/A   Clear
6:35 AM 4.1 °F -5.1 °F -1.5 °F 78% 30.47 in 10.0 mi WNW 4.6 mph - N/A   Clear
6:55 AM 3.9 °F -5.3 °F -1.8 °F 77% 30.47 in 10.0 mi WNW 4.6 mph - N/A   Clear
7:15 AM 4.1 °F -5.1 °F -1.5 °F 78% 30.47 in 10.0 mi WNW 4.6 mph - N/A   Clear
7:35 AM 4.8 °F -5.8 °F -1.3 °F 76% 30.48 in 10.0 mi West 5.8 mph - N/A   Clear
7:55 AM 5.4 °F -6.5 °F -1.3 °F 74% 30.48 in 10.0 mi WNW 6.9 mph - N/A   Clear
8:15 AM 6.1 °F -0.9 °F -0.9 °F 73% 30.48 in 10.0 mi WNW 3.5 mph - N/A   Clear
8:55 AM 7.7 °F -4.8 °F -0.4 °F 70% 30.48 in 10.0 mi WNW 8.1 mph - N/A   Clear
9:15 AM 8.2 °F -4.1 °F -0.8 °F 67% 30.48 in 10.0 mi WNW 8.1 mph - N/A   Clear
9:35 AM 9.1 °F -4.9 °F -0.4 °F 65% 30.47 in 10.0 mi NW 10.4 mph - N/A   Clear
9:55 AM 9.9 °F -1.1 °F -0.2 °F 64% 30.47 in 10.0 mi WNW 6.9 mph - N/A   Clear
10:15 AM 10.6 °F 1.0 °F -0.0 °F 62% 30.48 in 10.0 mi West 5.8 mph - N/A   Clear
10:35 AM 11.1 °F 1.7 °F -0.2 °F 60% 30.48 in 10.0 mi West 5.8 mph - N/A   Clear
10:55 AM 11.3 °F -1.3 °F -0.4 °F 59% 30.47 in 10.0 mi NW 9.2 mph - N/A   Clear
11:15 AM 11.7 °F 5.5 °F 0.3 °F 60% 30.47 in 10.0 mi West 3.5 mph - N/A   Clear
11:35 AM 12.4 °F 3.1 °F -0.0 °F 58% 30.47 in 10.0 mi WNW 5.8 mph - N/A   Clear
11:55 AM 12.7 °F 0.4 °F -1.1 °F 54% 30.46 in 10.0 mi West 9.2 mph - N/A   Clear
12:15 PM 13.3 °F 4.2 °F -1.5 °F 52% 30.45 in 10.0 mi West 5.8 mph - N/A   Clear
12:35 PM 14.0 °F 5.1 °F -1.7 °F 50% 30.44 in 10.0 mi West 5.8 mph - N/A   Clear
1:15 PM 14.5 °F - -2.2 °F 48% 30.43 in 10.0 mi Calm Calm - N/A   Clear
1:35 PM 14.5 °F 7.1 °F -0.8 °F 51% 30.42 in 10.0 mi WSW 4.6 mph - N/A   Clear
1:55 PM 14.5 °F - -1.7 °F 49% 30.42 in 10.0 mi Calm Calm - N/A   Clear
2:15 PM 14.9 °F 6.1 °F -1.1 °F 49% 30.42 in 10.0 mi WSW 5.8 mph - N/A   Clear
2:55 PM 15.6 °F 5.9 °F -1.8 °F 46% 30.41 in 10.0 mi WSW 6.9 mph - N/A   Clear
3:15 PM 15.6 °F 7.0 °F -1.8 °F 46% 30.41 in 10.0 mi WSW 5.8 mph - N/A   Clear
3:55 PM 14.5 °F 3.6 °F -1.3 °F 50% 30.40 in 10.0 mi SW 8.1 mph - N/A   Clear
4:15 PM 14.4 °F 5.5 °F -0.9 °F 51% 30.39 in 10.0 mi SW 5.8 mph - N/A   Clear
4:35 PM 12.9 °F 3.8 °F -1.3 °F 53% 30.40 in 10.0 mi SSW 5.8 mph - N/A   Clear
4:55 PM 11.1 °F 0.4 °F -1.3 °F 57% 30.38 in 10.0 mi SSW 6.9 mph - N/A   Clear
5:15 PM 10.0 °F 1.8 °F -0.8 °F 62% 30.37 in 10.0 mi SSW 4.6 mph - N/A   Clear
5:35 PM 9.9 °F 3.4 °F -0.9 °F 62% 30.37 in 10.0 mi SSW 3.5 mph - N/A   Clear
5:55 PM 9.3 °F 2.8 °F -0.9 °F 63% 30.37 in 10.0 mi South 3.5 mph - N/A   Clear
6:15 PM 9.5 °F 3.0 °F -1.5 °F 61% 30.36 in 10.0 mi South 3.5 mph - N/A   Clear
6:35 PM 9.0 °F 0.6 °F -1.3 °F 63% 30.35 in 10.0 mi SSE 4.6 mph - N/A   Clear
6:55 PM 8.6 °F 0.1 °F -1.3 °F 64% 30.35 in 10.0 mi South 4.6 mph - N/A   Clear
7:15 PM 8.8 °F - -1.5 °F 63% 30.35 in 10.0 mi Calm Calm - N/A   Clear
7:35 PM 8.4 °F -1.6 °F -1.3 °F 65% 30.34 in 10.0 mi South 5.8 mph - N/A   Clear
7:55 PM 8.6 °F -1.3 °F -1.3 °F 64% 30.34 in 10.0 mi South 5.8 mph - N/A   Clear
8:15 PM 8.1 °F 1.4 °F -1.3 °F 66% 30.33 in 10.0 mi South 3.5 mph - N/A   Clear
8:55 PM 7.3 °F -1.3 °F -1.7 °F 67% 30.32 in 10.0 mi South 4.6 mph - N/A   Clear
9:35 PM 7.2 °F -3.0 °F -1.8 °F 67% 30.32 in 10.0 mi South 5.8 mph - N/A   Clear
9:55 PM 7.9 °F -4.6 °F -1.3 °F 66% 30.31 in 10.0 mi South 8.1 mph - N/A   Clear
10:15 PM 8.8 °F -3.5 °F -0.2 °F 67% 30.31 in 10.0 mi South 8.1 mph - N/A   Clear
10:35 PM 8.8 °F -3.5 °F 0.5 °F 69% 30.31 in 10.0 mi South 8.1 mph - N/A   Clear
10:55 PM 9.3 °F -2.8 °F 1.0 °F 69% 30.30 in 10.0 mi South 8.1 mph - N/A   Scattered Clouds
11:15 PM 9.5 °F -2.6 °F 1.4 °F 70% 30.29 in 10.0 mi South 8.1 mph - N/A   Scattered Clouds
11:35 PM 10.0 °F -0.9 °F 1.2 °F 68% 30.30 in 10.0 mi South 6.9 mph - N/A   Clear
11:55 PM 10.0 °F -0.9 °F 0.9 °F 66% 30.29 in 10.0 mi South 6.9 mph - N/A   Clear